Tracking 17150 objects as of 4-August-2015
HD Live streaming from Space Station

H-1 R/B(1)

Track H-1 R/B(1) now!
10-day predictions
H-1 R/B(1) is classified as:


NORAD ID: 20230
Int'l Code: 1989-070B
Perigee: 190.7 km
Apogee: 8,834.5 km
Inclination: 28.2 °
Period: 188.3 minutes
Semi major axis: 10883 km
RCS: 2.9914 m2 (large)
Launch date: September 5, 1989
Source: Japan (JPN)

Note: This is a ROCKET BODY
Your satellite tracking list
Your tracking list is empty





NASA's NSSDC Master Catalog

Two Line Element Set (TLE):
1 20230U 89070B   15215.42222074  .00158478 -26308-6  10853-2 0  9996
2 20230 028.2356 213.0702 3971033 163.9129 343.3392 07.64617912449284

Source of the keplerian elements: AFSPC

N2YO: 376